Hourly Data Report for May 11, 2021

WIARTON A
ONTARIO
Current Station Operator: NAVCAN

44°44'39.000" N
81°06'31.000" W
221.90 m
6119499
71633
YVV

Download Data

Hourly Data (May 2021)
Hourly Data Report for May 11, 2021
TIME
LST
Temp Definition
°C
Dew Point Definition
°C
Rel Hum Definition
%
Precip. Amount Definition
mm

Wind Dir Definition
10's deg

Wind Spd Definition
km/h
Visibility Definition
km
Stn Press Definition
kPa
Hmdx Definition


Wind Chill Definition


Weather Definition


00:00 3.9 2.1 88   27 16 24.1 99.14     LegendNANA
01:00 3.6 2.0 89   27 12 24.1 99.14     Mainly Clear
02:00 3.9 2.5 91   27 14 24.1 99.10     LegendNANA
03:00 4.2 2.9 92   30 12 24.1 99.09     LegendNANA
04:00 4.1 2.2 88   29 11 24.1 99.11     Mostly Cloudy
05:00 3.9 1.6 85   29 17 24.1 99.14     LegendNANA
06:00 3.7 1.0 83   29 16 24.1 99.18     LegendNANA
07:00 3.9 1.0 81   29 16 24.1 99.22     Mostly Cloudy
08:00 4.3 0.7 78   30 20 24.1 99.25     LegendNANA
09:00 4.3 1.2 80   29 20 24.1 99.30     LegendNANA
10:00 5.3 1.1 74   28 23 24.1 99.35     Mostly Cloudy
11:00 5.6 0.5 70   28 22 24.1 99.38     LegendNANA
12:00 6.3 2.0 74   29 17 24.1 99.38     LegendNANA
13:00 5.2 1.3 76   30 24 24.1 99.40     Cloudy
14:00 4.9 1.9 80   29 22 24.1 99.41     LegendNANA
15:00 4.1 2.0 86   30 22 24.1 99.43     Rain
16:00 3.9 2.4 90   30 19 24.1 99.44     Rain
17:00 4.3 2.8 90   28 13 24.1 99.46     LegendNANA
18:00 5.7 3.3 85   27 9 24.1 99.48     LegendNANA
19:00 6.4 3.4 81   28 10 24.1 99.51     Mainly Clear
20:00 4.8 2.9 87   24 9 24.1 99.58     LegendNANA
21:00 3.1 2.1 93   20 10 24.1 99.65     LegendNANA
22:00 3.6 2.1 90   21 10 24.1 99.72     Clear
23:00 5.1 2.2 81   29 8 24.1 99.73     LegendNANA

Notes on Data Quality.

Legend

  • E = Estimated
  • M = Missing
  • NA = Not Available*
  • [empty] = Indicates an unobserved value
Date modified: